[[{"header":{"parameterUnit":"m.s-1","parameterCategory":1,"la1":30.2991,"la2":30.254,"lo1":-89.0895,"lo2":-89.0444,"dy":0.0017,"dx":0.0017,"nx":28,"ny":28,"refTime":"2024-03-17T21:00:00:Z","depth":0,"parameterNumber":2,"parameterNumberName":"U-component_of_WINDS"},"data":[0,0,0,0,0,0,0,0,0,0,0,0,0,0,0,0,0,0,0,0,0,0,0,0,0,0,0,0,0,0,0,0,0,0,0,0,0,0,0,0,0,0,0,0,0,0,0,0,0,0,0,0,0,0,0,0,0,0,-0.1424,-0.1425,0,-0.1551,-0.1552,-0.1554,-0.1559,-0.1557,-0.1555,-0.1554,-0.169,-0.1695,-0.17,0,0,0,0,0,0,0,0,0,0,0,0,0,-0.119,-0.1195,-0.1424,-0.1425,-0.1427,-0.155,-0.1552,-0.1554,-0.1559,-0.1557,-0.1555,-0.1553,-0.1689,-0.1695,-0.1701,0,0,0,0,0,0,0,0,0,0,0,0,0,-0.1302,-0.1196,-0.1423,-0.1444,-0.1447,-0.155,-0.1552,-0.1554,-0.1559,-0.1557,-0.1555,-0.1552,-0.1687,-0.1694,-0.1701,-0.1794,0,0,-0.1725,-0.1728,0,0,0,0,0,0,0,0,-0.1296,-0.1311,-0.1439,-0.1443,-0.1446,-0.1536,-0.152,-0.1635,-0.156,-0.1517,-0.1554,-0.1551,-0.1641,-0.1652,-0.1682,-0.1801,-0.1807,-0.1725,-0.173,-0.1733,-0.1735,0,0,0,0,0,0,0,-0.1288,-0.1305,-0.1474,-0.1441,-0.1446,-0.1449,-0.1462,-0.1542,-0.1591,-0.152,-0.1521,-0.1536,-0.1643,-0.1674,-0.1685,-0.1809,-0.1725,-0.1732,-0.1736,-0.1739,-0.2011,-0.2013,0,0,0,0,0,0,-0.1276,-0.1299,-0.147,-0.1478,-0.1364,-0.1455,-0.1469,-0.151,-0.159,-0.16,-0.1537,-0.1535,-0.1662,-0.1676,-0.169,-0.1804,-0.1733,-0.174,-0.1745,-0.2008,-0.2011,-0.2014,0,0,0,0,0,0,-0.127,-0.1291,-0.1465,-0.1389,-0.1411,-0.1461,-0.1506,-0.1514,-0.1545,-0.1603,-0.1612,-0.156,-0.1661,-0.1679,-0.1768,-0.1809,-0.1744,-0.175,-0.2005,-0.2009,-0.2013,-0.2034,0,0,0,0,0,0,-0.1264,-0.1289,-0.1324,-0.1389,-0.1415,-0.154,-0.1509,-0.1518,-0.1557,-0.1556,-0.1626,-0.1636,-0.1661,-0.1757,-0.1775,-0.1818,-0.1756,-0.2002,-0.2007,-0.2012,-0.203,-0.2039,-0.2046,0,0,0,0,0,-0.1255,-0.1326,-0.1325,-0.1346,-0.1459,-0.1542,-0.1557,-0.1582,-0.156,-0.1597,-0.1634,-0.1634,-0.1801,-0.1766,-0.1787,-0.1833,-0.1999,-0.2005,-0.2011,-0.2027,-0.2037,-0.2046,0,0,0,0,0,0,-0.1267,-0.1335,-0.1335,-0.1429,-0.1479,-0.1543,-0.1589,-0.1592,-0.1652,-0.1648,-0.1678,-0.1694,-0.1783,-0.1817,-0.1776,-0.1927,-0.1898,-0.1908,-0.1902,-0.1913,-0.192,-0.1911,-0.1763,0,0,0,0,0,-0.1279,-0.1339,-0.1396,-0.1474,-0.1499,-0.1539,-0.1577,-0.1591,-0.1646,-0.1668,-0.1711,-0.1766,-0.1831,-0.1873,-0.1936,-0.2034,-0.205,-0.2076,-0.2084,-0.209,-0.21,-0.2155,-0.2167,-0.2034,-0.2034,-0.2034,0,0,-0.1308,-0.1352,-0.1389,-0.1477,-0.1518,-0.1581,-0.1558,-0.1625,-0.1673,-0.1679,-0.1766,-0.1799,-0.1862,-0.1956,-0.2,-0.1987,-0.2139,-0.2097,-0.2102,-0.2109,-0.2162,-0.2175,-0.2186,-0.2038,-0.2037,-0.2037,0,0,-0.1392,-0.1431,-0.1499,-0.154,-0.1601,-0.1628,-0.1644,-0.1707,-0.1729,-0.1815,-0.1821,-0.1879,-0.1989,-0.2034,-0.2071,-0.217,-0.2173,-0.219,-0.2231,-0.2285,-0.2295,-0.2305,-0.2342,-0.2354,-0.2198,-0.2198,-0.2199,0,-0.142,-0.1513,-0.1535,-0.1603,-0.1642,-0.1646,-0.1717,-0.1757,-0.1836,-0.1864,-0.1847,-0.1986,-0.2029,-0.2134,-0.2157,-0.2187,-0.2208,-0.2183,-0.2292,-0.2301,-0.2311,-0.2346,-0.236,-0.22,-0.22,-0.22,-0.22,0,-0.1546,-0.161,-0.1659,-0.1733,-0.1777,-0.1846,-0.188,-0.1922,-0.1932,-0.1961,-0.2049,-0.21,-0.2173,-0.2199,-0.221,-0.2306,-0.2296,-0.2285,-0.2257,-0.2325,-0.2359,-0.2372,-0.2203,-0.2202,-0.2202,-0.2201,0,0,-0.1644,-0.1727,-0.1744,-0.1778,-0.1845,-0.1897,-0.1966,-0.2035,-0.2072,-0.2126,-0.2186,-0.2278,-0.2268,-0.2311,-0.2327,-0.2373,-0.245,-0.2357,-0.2359,-0.2374,-0.256,-0.2569,-0.2584,-0.2451,-0.2453,-0.2455,-0.2555,0,-0.1736,-0.1858,-0.1878,-0.1986,-0.2046,-0.2051,-0.2111,-0.216,-0.2188,-0.2245,-0.2276,-0.2342,-0.2323,-0.2348,-0.2394,-0.2431,-0.2488,-0.2424,-0.2509,-0.2512,-0.2496,-0.2602,-0.2612,-0.2704,-0.2568,-0.257,-0.2572,0,-0.1862,-0.1917,-0.2029,-0.2088,-0.2114,-0.2168,-0.2233,-0.2286,-0.2342,-0.2359,-0.2404,-0.2415,-0.2488,-0.2454,-0.2557,-0.2512,-0.2548,-0.2571,-0.2575,-0.2587,-0.2548,-0.2618,-0.2733,-0.2748,-0.2593,-0.2591,-0.259,0,-0.1924,-0.2026,-0.2107,-0.2135,-0.2205,-0.2243,-0.2274,-0.2326,-0.2367,-0.2424,-0.245,-0.2516,-0.2553,-0.2604,-0.2632,-0.2604,-0.2733,-0.2701,-0.2751,-0.2751,-0.2781,-0.2779,-0.2906,-0.28,-0.2799,-0.2799,-0.2799,0,-0.2027,-0.2097,-0.2136,-0.2186,-0.2264,-0.2286,-0.2364,-0.2394,-0.244,-0.2498,-0.2505,-0.2559,-0.2592,-0.2651,-0.2673,-0.2755,-0.2771,-0.2789,-0.2795,-0.279,-0.2788,-0.2816,-0.2811,-0.2803,-0.2802,-0.2801,-0.2801,0,-0.2112,-0.214,-0.2229,-0.2286,-0.2302,-0.2357,-0.2407,-0.2457,-0.2483,-0.2555,-0.2573,-0.2616,-0.2686,-0.2718,-0.2804,-0.2819,-0.2914,-0.2914,-0.2895,-0.2897,-0.2946,-0.2942,-0.3098,-0.312,-0.2997,-0.2998,-0.2999,0,-0.2177,-0.223,-0.2292,-0.233,-0.2361,-0.2422,-0.2462,-0.2487,-0.2529,-0.2594,-0.2636,-0.2705,-0.2762,-0.2873,-0.2913,-0.298,-0.2983,-0.3033,-0.2993,-0.2987,-0.2986,-0.2984,-0.299,-0.3041,-0.3042,-0.3043,-0.3044,0,-0.229,-0.2301,-0.2358,-0.242,-0.2467,-0.2517,-0.2567,-0.2598,-0.263,-0.2677,-0.2747,-0.2791,-0.2878,-0.2947,-0.3015,-0.3049,-0.3053,-0.3055,-0.3071,-0.3068,-0.3055,-0.3065,-0.2917,-0.3053,-0.3052,-0.3051,-0.3051,-0.305,-0.2369,-0.2416,-0.2467,-0.253,-0.2569,-0.2615,-0.2664,-0.2695,-0.2753,-0.2825,-0.2835,-0.291,-0.2964,-0.3056,-0.3092,-0.3152,-0.314,-0.3162,-0.3169,-0.3174,-0.3178,-0.3043,-0.3164,-0.3164,-0.3164,-0.3164,-0.3163,0,-0.2484,-0.2516,-0.2574,-0.2642,-0.2691,-0.2687,-0.2741,-0.2784,-0.2849,-0.2897,-0.2952,-0.3033,-0.3099,-0.3143,-0.3211,-0.3251,-0.3254,-0.3268,-0.3267,-0.3275,-0.3183,-0.3164,-0.3264,-0.3264,-0.3264,-0.3264,-0.3264,-0.3264,-0.255,-0.263,-0.2647,-0.2747,-0.2779,-0.2851,-0.2883,-0.2925,-0.2964,-0.3053,-0.3107,-0.3134,-0.3182,-0.3252,-0.3314,-0.3325,-0.3351,-0.3365,-0.3377,-0.3291,-0.3281,-0.3271,-0.3253,-0.337,-0.337,-0.3463,-0.3464,-0.3465]},{"header":{"parameterUnit":"m.s-1","parameterCategory":1,"la1":30.2991,"la2":30.254,"lo1":-89.0895,"lo2":-89.0444,"dy":0.0017,"dx":0.0017,"nx":28,"ny":28,"refTime":"2024-03-17T21:00:00:Z","depth":0,"parameterNumber":3,"parameterNumberName":"V-component_of_WINDS"},"data":[0,0,0,0,0,0,0,0,0,0,0,0,0,0,0,0,0,0,0,0,0,0,0,0,0,0,0,0,0,0,0,0,0,0,0,0,0,0,0,0,0,0,0,0,0,0,0,0,0,0,0,0,0,0,0,0,0,0,-7.3696,-7.3698,0,-7.3879,-7.3881,-7.3883,-7.3786,-7.3781,-7.3776,-7.3772,-7.3957,-7.3966,-7.3976,0,0,0,0,0,0,0,0,0,0,0,0,0,-7.326,-7.3269,-7.3696,-7.3698,-7.3701,-7.3879,-7.3881,-7.3884,-7.3787,-7.3781,-7.3775,-7.377,-7.3954,-7.3965,-7.3976,0,0,0,0,0,0,0,0,0,0,0,0,0,-7.3447,-7.3271,-7.3696,-7.3674,-7.3674,-7.3878,-7.3881,-7.3884,-7.3788,-7.3781,-7.3774,-7.3767,-7.395,-7.3964,-7.3978,-7.4214,0,0,-7.4022,-7.4028,0,0,0,0,0,0,0,0,-7.3436,-7.3463,-7.3675,-7.3676,-7.3676,-7.3802,-7.3795,-7.3995,-7.379,-7.3745,-7.3772,-7.3763,-7.3911,-7.3928,-7.3979,-7.4222,-7.423,-7.4023,-7.4031,-7.4038,-7.4042,0,0,0,0,0,0,0,-7.3424,-7.3455,-7.3768,-7.3678,-7.3679,-7.3654,-7.3672,-7.3833,-7.3867,-7.3748,-7.3742,-7.3765,-7.391,-7.3965,-7.3982,-7.4233,-7.4022,-7.4035,-7.4044,-7.4049,-7.4678,-7.4686,0,0,0,0,0,0,-7.3412,-7.3444,-7.3762,-7.3774,-7.3536,-7.3668,-7.3688,-7.3769,-7.3865,-7.3873,-7.3771,-7.3759,-7.3944,-7.3966,-7.3988,-7.4271,-7.4037,-7.4051,-7.4059,-7.467,-7.468,-7.4688,0,0,0,0,0,0,-7.3403,-7.3442,-7.3755,-7.3608,-7.3646,-7.3683,-7.3775,-7.3777,-7.3832,-7.3882,-7.3888,-7.3821,-7.3939,-7.3968,-7.4158,-7.4276,-7.4057,-7.407,-7.466,-7.4673,-7.4684,-7.4837,0,0,0,0,0,0,-7.3391,-7.3439,-7.353,-7.361,-7.3654,-7.3924,-7.3782,-7.3786,-7.3857,-7.3844,-7.3931,-7.3938,-7.3936,-7.4138,-7.4173,-7.4291,-7.4081,-7.465,-7.4666,-7.468,-7.4821,-7.4853,-7.4879,0,0,0,0,0,-7.3376,-7.3565,-7.3535,-7.3574,-7.3768,-7.393,-7.3955,-7.395,-7.3867,-7.3958,-7.399,-7.3935,-7.4257,-7.4158,-7.4196,-7.4321,-7.4642,-7.4661,-7.4679,-7.4808,-7.4847,-7.4879,0,0,0,0,0,0,-7.3497,-7.3575,-7.3543,-7.3764,-7.3841,-7.3914,-7.4029,-7.399,-7.4092,-7.4076,-7.4064,-7.4084,-7.4282,-7.432,-7.4208,-7.4554,-7.4437,-7.4464,-7.4522,-7.4558,-7.4587,-7.4574,-7.4093,0,0,0,0,0,-7.3549,-7.3675,-7.3736,-7.3925,-7.3966,-7.3991,-7.4061,-7.405,-7.413,-7.4162,-7.4208,-7.4287,-7.4405,-7.4484,-7.4595,-7.4826,-7.4843,-7.4931,-7.4959,-7.4983,-7.5007,-7.5131,-7.517,-7.4749,-7.4748,-7.4748,0,0,-7.3659,-7.3717,-7.3797,-7.3951,-7.401,-7.414,-7.4019,-7.4162,-7.4258,-7.4183,-7.4366,-7.4403,-7.4489,-7.47,-7.4796,-7.4738,-7.5127,-7.5006,-7.5025,-7.5036,-7.5154,-7.5194,-7.5229,-7.4761,-7.4759,-7.4757,0,0,-7.3925,-7.3982,-7.4146,-7.4207,-7.4298,-7.4313,-7.4352,-7.4431,-7.4453,-7.4636,-7.4582,-7.4695,-7.49,-7.4964,-7.5023,-7.5313,-7.5266,-7.5349,-7.5501,-7.5622,-7.5655,-7.5685,-7.5788,-7.5825,-7.5372,-7.5373,-7.5373,0,-7.405,-7.4245,-7.4234,-7.4382,-7.4451,-7.4389,-7.4554,-7.4614,-7.4737,-7.4785,-7.4719,-7.4975,-7.5029,-7.5254,-7.5324,-7.5374,-7.5418,-7.534,-7.5651,-7.5681,-7.5708,-7.5807,-7.5845,-7.5382,-7.5381,-7.538,-7.5379,0,-7.4393,-7.4529,-7.465,-7.4771,-7.4853,-7.5008,-7.5021,-7.5105,-7.5087,-7.5108,-7.5295,-7.5357,-7.5481,-7.5533,-7.5516,-7.5756,-7.5718,-7.5652,-7.5534,-7.5758,-7.585,-7.5888,-7.5396,-7.5393,-7.539,-7.5387,0,0,-7.4742,-7.4855,-7.4899,-7.4953,-7.5048,-7.5152,-7.5304,-7.5425,-7.5498,-7.5584,-7.5711,-7.5885,-7.5825,-7.5892,-7.5881,-7.5988,-7.6213,-7.5909,-7.5911,-7.5964,-7.6481,-7.653,-7.6574,-7.6182,-7.6189,-7.6195,-7.6473,0,-7.5015,-7.5282,-7.5277,-7.5525,-7.5649,-7.5592,-7.5724,-7.5796,-7.5821,-7.5929,-7.5954,-7.6078,-7.599,-7.603,-7.6132,-7.6164,-7.6317,-7.6143,-7.6299,-7.6305,-7.628,-7.6622,-7.6675,-7.6935,-7.6509,-7.6515,-7.652,0,-7.537,-7.5468,-7.5729,-7.5805,-7.5857,-7.5976,-7.6086,-7.6191,-7.6271,-7.628,-7.6356,-7.6328,-7.6481,-7.6358,-7.6569,-7.6451,-7.6514,-7.6539,-7.6549,-7.6564,-7.6427,-7.6647,-7.7018,-7.7057,-7.6576,-7.6572,-7.6568,0,-7.5599,-7.5796,-7.5977,-7.6025,-7.6118,-7.6203,-7.6246,-7.6318,-7.6391,-7.6487,-7.6534,-7.6646,-7.6708,-7.6795,-7.6798,-7.6708,-7.701,-7.6888,-7.7022,-7.7023,-7.7089,-7.7085,-7.7477,-7.7129,-7.7129,-7.7128,-7.7127,0,-7.5905,-7.6066,-7.6081,-7.6193,-7.6372,-7.6363,-7.654,-7.6575,-7.664,-7.6756,-7.6713,-7.6822,-7.6819,-7.6931,-7.6934,-7.7107,-7.7135,-7.7147,-7.7146,-7.7152,-7.715,-7.7193,-7.7176,-7.7138,-7.7136,-7.7134,-7.7132,0,-7.6191,-7.6208,-7.6402,-7.6474,-7.6495,-7.6624,-7.6685,-7.6791,-7.681,-7.6958,-7.6992,-7.7023,-7.7152,-7.7163,-7.7312,-7.7313,-7.7524,-7.7503,-7.7498,-7.7494,-7.7628,-7.7616,-7.8062,-7.812,-7.7734,-7.7738,-7.7741,0,-7.6386,-7.6509,-7.6594,-7.6669,-7.6717,-7.6839,-7.6913,-7.6909,-7.6988,-7.7088,-7.7181,-7.7306,-7.7405,-7.7614,-7.7648,-7.7762,-7.7744,-7.7892,-7.776,-7.7762,-7.7746,-7.7739,-7.7751,-7.7918,-7.7922,-7.7925,-7.7928,0,-7.673,-7.6731,-7.6841,-7.6953,-7.7043,-7.7131,-7.7214,-7.7277,-7.7283,-7.7374,-7.7505,-7.7583,-7.7735,-7.7859,-7.797,-7.8012,-7.7972,-7.7969,-7.8006,-7.8014,-7.8006,-7.8012,-7.7568,-7.7959,-7.7956,-7.7954,-7.7952,-7.7951,-7.6977,-7.7083,-7.716,-7.7283,-7.7344,-7.7422,-7.7525,-7.7557,-7.7667,-7.7791,-7.7781,-7.7927,-7.8002,-7.8147,-7.8198,-7.8311,-7.8261,-7.8315,-7.8328,-7.8342,-7.8356,-7.7987,-7.8331,-7.833,-7.8329,-7.8328,-7.8328,0,-7.7318,-7.7365,-7.7478,-7.7594,-7.7691,-7.7644,-7.7733,-7.7816,-7.7945,-7.8019,-7.8118,-7.8269,-7.8389,-7.8433,-7.8549,-7.8631,-7.8615,-7.8662,-7.8656,-7.8666,-7.8394,-7.8351,-7.8673,-7.8673,-7.8672,-7.8672,-7.8672,-7.8672,-7.7508,-7.7686,-7.7696,-7.7904,-7.7948,-7.8091,-7.8146,-7.8217,-7.8276,-7.8447,-7.8546,-7.8574,-7.8636,-7.8756,-7.8864,-7.8873,-7.8918,-7.8973,-7.8975,-7.872,-7.8686,-7.8653,-7.8612,-7.8983,-7.8984,-7.9238,-7.924,-7.9242]}]]